x

North Equatorial Two - 890 Nm East Of Martinique (41041) Wave Buoy

4:50pm - Sat 25th Apr 2015 All times are UTC.

  • Sig Wave height 6.2ft
  • Swell Direction
  • Peak Period 14s
  • Average Period 7s
  • Wind
    13mph, 18mph gusts
  • Sea Temp 77°f
  • Air Temp 77°f
  • Sea Pressure 1017.3mb

More Historic Weather Station data

Upgrade to MSW Pro to gain access to the past 30 days of data for over 8000 Wavebouys and Weather Stations around the globe.

Join Pro

Comparision Forecast

View Surf forecast
   
Sat 04/25 4:50pm 6ft 14s 7s 13 18 mph 1017.3mb 77f 77f
3:50pm 7ft 14s 7s 13 16 mph 1018.2mb 77f 77f
2:50pm 6.5ft 14s 7s 16 18 mph 1018.8mb 77f 77f
1:50pm 7.5ft 14s 8s 16 18 mph 1019.2mb 77f 77f
12:50pm 7ft 14s 8s 18 20 mph 1019mb 77f 77f
11:50am 7ft 14s 8s 16 18 mph 1019.2mb 77f 77f
10:50am 7.5ft 15s 8s 16 18 mph 1018.9mb 77f 77f
9:50am 7ft 15s 7s 13 18 mph 1018.2mb 77f 77f
8:50am 7.5ft 15s 8s 13 16 mph 1017.8mb 77f 76f
7:50am 8ft 15s 8s 13 18 mph 1017mb 77f 76f
6:50am 7ft 15s 8s 16 18 mph 1016.5mb 77f 76f
5:50am 7.5ft 15s 8s 13 18 mph 1016.2mb 77f 76f
4:50am 7ft 13s 8s 13 16 mph 1016.7mb 77f 76f
3:50am 8ft 15s 8s 13 16 mph 1017.3mb 77f 76f
2:50am 7ft 16s 8s 16 18 mph 1017.6mb 77f 76f
1:50am 8.5ft 15s 8s 16 18 mph 1017.6mb 77f 76f
12:50am 7.5ft 15s 8s 16 18 mph 1017.2mb 77f 76f
Fri 04/24 11:50pm 8ft 16s 8s 13 16 mph 1016.8mb 77f 76f
10:50pm 9ft 15s 8s 16 18 mph 1016.4mb 77f 76f
9:50pm 8.5ft 15s 8s 16 18 mph 1016.2mb 77f 76f
8:50pm 9ft 16s 9s 16 18 mph 1015.9mb 77f 76f
7:50pm 8ft 15s 8s 13 18 mph 1015.6mb 77f 77f
6:50pm 8ft 16s 8s 16 18 mph 1015.7mb 77f 77f
5:50pm 8ft 15s 8s 16 18 mph 1015.9mb 77f 77f
4:50pm 9ft 16s 9s 16 18 mph 1016.5mb 77f 77f
3:50pm 7.5ft 15s 7s 16 18 mph 1017.3mb 77f 76f
2:50pm 8.5ft 16s 8s 18 20 mph 1018.2mb 77f 77f
1:50pm 9ft 15s 9s 18 20 mph 1018.6mb 77f 77f
12:50pm 9.5ft 15s 9s 16 20 mph 1018.8mb 77f 77f
11:50am 10ft 15s 9s 13 16 mph 1018.9mb 77f 77f
10:50am 8ft 16s 8s 16 20 mph 1018.7mb 77f 76f
9:50am 8.5ft 15s 9s 13 16 mph 1018.3mb 77f 77f
8:50am 9ft 16s 9s 13 16 mph 1017.6mb 77f 76f
7:50am 8.5ft 16s 8s 16 20 mph 1016.8mb 77f 76f
6:50am 8.5ft 15s 9s 13 18 mph 1016.6mb 77f 76f
5:50am 9ft 16s 9s 13 16 mph 1016.6mb 77f 76f
4:50am 9ft 16s 9s 16 18 mph 1016.9mb 77f 76f
3:50am 9.5ft 16s 9s 13 16 mph 1017.5mb 77f 76f
2:50am 8.5ft 16s 8s 16 20 mph 1018mb 77f 76f
1:50am 8.5ft 17s 9s 16 20 mph 1018.3mb 77f 76f
12:50am 9ft 16s 9s 16 18 mph 1017.9mb 77f 76f
Thu 04/23 11:50pm 9.5ft 16s 9s 18 20 mph 1017.1mb 77f 76f
10:50pm 9ft 16s 8s 16 18 mph 1016.6mb 77f 76f
9:50pm 9ft 14s 9s 16 20 mph 1016.3mb 77f 76f
8:50pm 9ft 16s 8s 16 18 mph 1016.1mb 77f 76f
7:50pm 8ft 15s 8s 16 20 mph 1015.9mb 77f 76f
6:50pm 8ft 15s 8s 16 18 mph 1016mb 77f 76f
5:50pm 7.5ft 16s 8s 13 16 mph 1016.3mb 77f 76f
4:50pm 7ft 16s 7s 13 16 mph 1016.8mb 77f 76f
3:50pm 7.5ft 16s 8s 16 18 mph 1017.3mb 77f 76f
2:50pm 7ft 16s 7s 16 18 mph 1017.9mb 77f 76f
1:50pm 6ft 15s 6s 16 18 mph 1018.5mb 77f 76f
12:50pm 6ft 16s 6s 16 20 mph 1018.1mb 77f 76f
11:50am 6ft 17s 6s 16 18 mph 1017.8mb 77f 76f
10:50am 5ft 13s 6s 16 20 mph 1017.6mb 77f 76f
9:50am 5ft 7s 6s 18 20 mph 1016.9mb 77f 75f
8:50am 5ft 7s 6s 16 18 mph 1016.6mb 77f 76f
7:50am 5ft 7s 6s 16 18 mph 1016.3mb 77f 76f
6:50am 5ft 6s 5s 16 18 mph 1016.1mb 77f 75f
5:50am 5ft 7s 5s 16 18 mph 1016.1mb 77f 75f
4:50am 5ft 6s 5s 16 18 mph 1016.6mb 77f 75f
3:50am 5ft 7s 5s 16 20 mph 1017.2mb 77f 76f
2:50am 5ft 7s 5s 16 20 mph 1017.9mb 77f 76f
1:50am 5ft 7s 5s 18 20 mph 1018.1mb 77f 76f
12:50am 5ft 6s 5s 16 18 mph 1017.9mb 77f 76f
Wed 04/22 11:50pm 5ft 7s 5s 18 20 mph 1017.2mb 77f 76f
10:50pm 5ft 7s 5s 18 22 mph 1016.7mb 77f 76f
9:50pm 5ft 6s 5s 18 20 mph 1016.3mb 77f 76f
8:50pm 5ft 7s 5s 18 20 mph 1015.8mb 77f 76f
7:50pm 5ft 7s 5s 16 18 mph 1015.5mb 77f 76f
6:50pm 5.5ft 7s 5s 18 20 mph 1015.5mb 77f 76f
5:50pm 5ft 7s 5s 18 20 mph 1015.7mb 77f 76f
4:50pm 5ft 7s 5s 18 20 mph 1015.9mb 77f 76f
3:50pm 5ft 7s 5s 18 20 mph 1016.6mb 77f 76f
2:50pm 5ft 7s 5s 18 22 mph 1017.1mb 77f 76f
1:50pm 5ft 7s 6s 18 22 mph 1017.1mb 77f 76f
12:50pm 5ft 7s 6s 16 18 mph 1017mb 77f 76f
11:50am 5ft 7s 6s 16 18 mph 1017.1mb 77f 76f
10:50am 5.5ft 7s 6s 13 18 mph 1016.7mb 77f 76f
9:50am 6ft 7s 6s 18 20 mph 1015.9mb 77f 75f
8:50am 6ft 7s 6s 16 20 mph 1015.4mb 77f 75f
7:50am 6ft 7s 6s 18 22 mph 1015.1mb 77f 75f
6:50am 5.5ft 7s 6s 18 20 mph 1015.1mb 77f 75f
5:50am 5.5ft 7s 6s 16 20 mph 1015.2mb 77f 75f
4:50am 5.5ft 11s 6s 18 20 mph 1015.6mb 77f 76f
3:50am 5.5ft 7s 6s 18 20 mph 1016.4mb 77f 76f
2:50am 5.5ft 7s 6s 16 18 mph 1017.2mb 77f 76f
1:50am 6ft 14s 6s 18 22 mph 1017.3mb 77f 76f
12:50am 6ft 13s 6s 16 18 mph 1017.4mb 77f 76f
Tue 04/21 11:50pm 6ft 13s 6s 16 18 mph 1017.2mb 77f 76f
10:50pm 6ft 11s 6s 16 18 mph 1016.7mb 77f 76f
9:50pm 6ft 12s 6s 16 20 mph 1016.1mb 77f 76f
8:50pm 6ft 11s 6s 18 20 mph 1015.7mb 77f 76f
7:50pm 6ft 14s 6s 16 20 mph 1015.4mb 77f 76f
6:50pm 6ft 14s 6s 18 20 mph 1015.3mb 77f 76f